CYGFM02 (41886 NORAD) Tracking and Keplerian Element Data

This shows tracking and keplerian element data for the satellite.

Feedback or suggestion? Click here.




ElementValue
Catalog41886
NameCYGFM02
Epoch Orbit8786
Epoch Day198.90162813
Epoch Year2018
RAAN88.2579
Inclination34.9596
Eccentricity0.0016031
Argument of Perigee272.9608
Mean Anonmoly86.9268
Mean Motion15.14642711
Decay Rate1.177E-05
L11 41886U 16078C 18198.90162813 .00001177 00000-0 63772-4 0 9991
L22 41886 34.9596 88.2579 0016031 272.9608 86.9268 15.14642711 87869

Live tracking and technical data element details for CYGFM02 (NORAD 41886). CYGFM02 can be tracked NOW for your location showing map with azimuth and elevation plus other details from your city location.

Track the satellite on the map from your city or location and see movement details for azimuth, elevation, latitude, longitude, range, height, and movement on the map or in text.







IsCatalogInMostPopularTable: catalog: 41886, numindb: 95
Update: records affected: 1



GetName: 41886 CYGFM02

Hit Count: updated at: Wed, 18 Jul 2018 20:24:18 GMT